QPF
0.00 0.00 0.00 0.00 0.00 0.00 0.00 0.00 0.00 0.00 0.00 0.00 0.00 0.00 0.00 0.00 0.00 0.00 0.00 0.00 0.00 0.00 0.00 0.00 0.00 0.00 0.00 0.00 0.00 0.00 0.00 0.00 0.00 0.00 0.00 0.00 0.00 0.00 0.00 0.00 0.00 0.00 0.00 0.00
0.00 0.00 0.00 0.00 0.00 0.00 0.00 0.00 0.00 0.00 0.00 0.00 0.00 0.00 0.00 0.00 0.00 0.00 0.00 0.00 0.00 0.00 0.00 0.00 0.00 0.00 0.00 0.00 0.00 0.00 0.00 0.00 0.00 0.00 0.00 0.00 0.00 0.00 0.00 0.00 0.00 0.00 0.00 0.00
0.00 0.00 0.00 0.00 0.00 0.00 0.00 0.00 0.00 0.00 0.00 0.00 0.00 0.00 0.00 0.00 0.00 0.00 0.00 0.00 0.00 0.00 0.00 0.00 0.00 0.00 0.00 0.00 0.00 0.00 0.00 0.00 0.00 0.00 0.00 0.00 0.00 0.00 0.00 0.00 0.00 0.00 0.00 0.00
0.00 0.00 0.00 0.00 0.00 0.00 0.00 0.00 0.00 0.00 0.00 0.00 0.00 0.00 0.00 0.00 0.00 0.00 0.00 0.00 0.00 0.00 0.00 0.00 0.00 0.00 0.00 0.00 0.00 0.00 0.00 0.00 0.00 0.00 0.00 0.00 0.00 0.00 0.00 0.00 0.00 0.00 0.00 0.00
0.00 0.00 0.00 0.00 0.00 0.00 0.00 0.00 0.00 0.00 0.00 0.00 0.00 0.00 0.00 0.00 0.00 0.00 0.00 0.00 0.00 0.00 0.00 0.00 0.00 0.00 0.00 0.00 0.00 0.00 0.00 0.00 0.00 0.00 0.00 0.00 0.00 0.00 0.00 0.00 0.00 0.00 0.00 0.00
0.00 0.00 0.00 0.00 0.00 0.00 0.00 0.00 0.00 0.00 0.00 0.00 0.00 0.00 0.00 0.00 0.00 0.00 0.00 0.00 0.00 0.00 0.00 0.00 0.00 0.00 0.00 0.00 0.00 0.00 0.00 0.00 0.00 0.00 0.00 0.00 0.00 0.00 0.00 0.00 0.00 0.00 0.00 0.00
0.00 0.00 0.00 0.00 0.00 0.00 0.00 0.00 0.00 0.00 0.00 0.00 0.00 0.00 0.00 0.00 0.00 0.00 0.00 0.00 0.00 0.00 0.00 0.00 0.00 0.00 0.00 0.00 0.00 0.00 0.00 0.00 0.00 0.00 0.00 0.00 0.00 0.00 0.00 0.00 0.00 0.00 0.00 0.00
0.00 0.00 0.00 0.00 0.00 0.00 0.00 0.00 0.00 0.00 0.00 0.00 0.00 0.00 0.00 0.00 0.00 0.00 0.00 0.00 0.00 0.00 0.00 0.00 0.00 0.00 0.00 0.00 0.00 0.00 0.00 0.00 0.00 0.00 0.00 0.00 0.00 0.00 0.00 0.00 0.00 0.00 0.00 0.00
0.00 0.00 0.00 0.00 0.00 0.00 0.00 0.00 0.00 0.00 0.00 0.00 0.00 0.00 0.00 0.00 0.00 0.00 0.00 0.00 0.00 0.00 0.00 0.00 0.00 0.00 0.00 0.00 0.00 0.00 0.00 0.00 0.00 0.00 0.00 0.00 0.00 0.00 0.00 0.00 0.00 0.00 0.00 0.00
0.00 0.00 0.00 0.00 0.00 0.00 0.00 0.00 0.00 0.00 0.00 0.00 0.00 0.00 0.00 0.00 0.00 0.00 0.00 0.00 0.00 0.00 0.00 0.00 0.00 0.00 0.00 0.00 0.00 0.00 0.00 0.00 0.00 0.00 0.00 0.00 0.00 0.00 0.00 0.00 0.00 0.00 0.00 0.00
0.00 0.00 0.00 0.00 0.00 0.00 0.00 0.00 0.00 0.00 0.00 0.00 0.00 0.00 0.00 0.00 0.00 0.00 0.00 0.00 0.00 0.00 0.00 0.00 0.00 0.00 0.00 0.00 0.00 0.00 0.00 0.00 0.00 0.00 0.00 0.00 0.00 0.00 0.00 0.00 0.00 0.00 0.00 0.00
0.00 0.00 0.00 0.00 0.00 0.00 0.00 0.00 0.00 0.00 0.00 0.00 0.00 0.00 0.00 0.00 0.00 0.00 0.00 0.00 0.00 0.00 0.00 0.00 0.00 0.00 0.00 0.00 0.00 0.00 0.00 0.00 0.00 0.00 0.00 0.00 0.00 0.00 0.00 0.00 0.00 0.00 0.00 0.00
0.00 0.00 0.00 0.00 0.00 0.00 0.00 0.00 0.00 0.00 0.00 0.00 0.00 0.00 0.00 0.00 0.00 0.00 0.00 0.00 0.00 0.00 0.00 0.00 0.00 0.00 0.00 0.00 0.00 0.00 0.00 0.00 0.00 0.00 0.00 0.00 0.00 0.00 0.00 0.00 0.00 0.00 0.00 0.00
0.00 0.00 0.00 0.00 0.00 0.00 0.00 0.00 0.00 0.00 0.00 0.00 0.00 0.00 0.00 0.00 0.00 0.00 0.00 0.00 0.00 0.00 0.00 0.00 0.00 0.00 0.00 0.00 0.00 0.00 0.00 0.00 0.00 0.00 0.00 0.00 0.00 0.00 0.00 0.00 0.00 0.00 0.00 0.00
0.00 0.00 0.00 0.00 0.00 0.00 0.00 0.00 0.00 0.00 0.00 0.00 0.00 0.00 0.00 0.00 0.00 0.00 0.00 0.00 0.00 0.00 0.00 0.00 0.00 0.00 0.00 0.00 0.00 0.00 0.00 0.00 0.00 0.00 0.00 0.00 0.00 0.00 0.00 0.00 0.00 0.00 0.00 0.00
0.00 0.00 0.00 0.00 0.00 0.00 0.00 0.00 0.00 0.00 0.00 0.00 0.00 0.00 0.00 0.00 0.00 0.00 0.00 0.00 0.00 0.00 0.00 0.00 0.00 0.00 0.00 0.00 0.00 0.00 0.00 0.00 0.00 0.00 0.00 0.00 0.00 0.00 0.00 0.00 0.00 0.00 0.00 0.00
0.00 0.00 0.00 0.00 0.00 0.00 0.00 0.00 0.00 0.00 0.00 0.00 0.00 0.00 0.00 0.00 0.00 0.00 0.00 0.00 0.00 0.00 0.00 0.00 0.00 0.00 0.00 0.00 0.00 0.00 0.00 0.00 0.00 0.00 0.00 0.00 0.00 0.00 0.00 0.00 0.00 0.00 0.00 0.00
0.00 0.00 0.00 0.00 0.00 0.00 0.00 0.00 0.00 0.00 0.00 0.00 0.00 0.00 0.00 0.00 0.00 0.00 0.00 0.00 0.00 0.00 0.00 0.00 0.00 0.00 0.00 0.00 0.00 0.00 0.00 0.00 0.00 0.00 0.00 0.00 0.00 0.00 0.00 0.00 0.00 0.00 0.00 0.00
0.00 0.00 0.00 0.00 0.00 0.00 0.00 0.00 0.00 0.00 0.00 0.00 0.00 0.00 0.00 0.00 0.00 0.00 0.00 0.00 0.00 0.00 0.00 0.00 0.00 0.00 0.00 0.00 0.00 0.00 0.00 0.00 0.00 0.00 0.00 0.00 0.00 0.00 0.00 0.00 0.00 0.00 0.00 0.00
0.00 0.00 0.00 0.00 0.00 0.00 0.00 0.00 0.00 0.00 0.00 0.00 0.00 0.00 0.00 0.00 0.00 0.00 0.00 0.00 0.00 0.00 0.00 0.00 0.00 0.00 0.00 0.00 0.00 0.00 0.00 0.00 0.00 0.00 0.00 0.00 0.00 0.00 0.00 0.00 0.00 0.00 0.00 0.00
0.00 0.00 0.00 0.00 0.00 0.00 0.00 0.00 0.00 0.00 0.00 0.00 0.00 0.00 0.00 0.00 0.00 0.00 0.00 0.00 0.00 0.00 0.00 0.00 0.00 0.00 0.00 0.00 0.00 0.00 0.00 0.00 0.00 0.00 0.00 0.00 0.00 0.00 0.00 0.00 0.00 0.00 0.00 0.00
0.00 0.00 0.00 0.00 0.00 0.00 0.00 0.00 0.00 0.00 0.00 0.00 0.00 0.00 0.00 0.00 0.00 0.00 0.00 0.00 0.00 0.00 0.00 0.00 0.00 0.00 0.00 0.00 0.00 0.00 0.00 0.00 0.00 0.00 0.00 0.00 0.00 0.00 0.00 0.00 0.00 0.00 0.00 0.00
0.00 0.00 0.00 0.00 0.00 0.00 0.00 0.00 0.00 0.00 0.00 0.00 0.00 0.00 0.00 0.00 0.00 0.00 0.00 0.00 0.00 0.00 0.00 0.00 0.00 0.00 0.00 0.00 0.00 0.00 0.00 0.00 0.00 0.00 0.00 0.00 0.00 0.00 0.00 0.00 0.00 0.00 0.00 0.00
0.00 0.00 0.00 0.00 0.00 0.00 0.00 0.00 0.00 0.00 0.00 0.00 0.00 0.00 0.00 0.00 0.00 0.00 0.00 0.00 0.00 0.00 0.00 0.00 0.00 0.00 0.00 0.00 0.00 0.00 0.00 0.00 0.00 0.00 0.00 0.00 0.00 0.00 0.00 0.00 0.00 0.00 0.00 0.00
0.00 0.00 0.00 0.00 0.00 0.00 0.00 0.00 0.00 0.00 0.00 0.00 0.00 0.00 0.00 0.00 0.00 0.00 0.00 0.00 0.00 0.00 0.00 0.00 0.00 0.00 0.00 0.00 0.00 0.00 0.00 0.00 0.00 0.00 0.00 0.00 0.00 0.00 0.00 0.00 0.00 0.00 0.00 0.00
0.00 0.00 0.00 0.00 0.00 0.00 0.00 0.00 0.00 0.00 0.00 0.00 0.00 0.00 0.00 0.00 0.00 0.00 0.00 0.00 0.00 0.00 0.00 0.00 0.00 0.00 0.00 0.00 0.00 0.00 0.00 0.00 0.00 0.00 0.00 0.00 0.00 0.00 0.00 0.00 0.00 0.00 0.00 0.00
MSLP
1018.69 1019.31 1019.76 1020.05 1020.19 1020.22 1020.17 1020.08 1019.97 1019.85 1019.71 1019.55 1019.36 1019.13 1018.87 1018.59 1018.31 1018.04 1017.82 1017.64 1017.49 1017.37 1017.26 1017.14 1017.02 1016.90 1016.79 1016.73 1016.72 1016.81 1017.00 1017.30 1017.68 1018.12 1018.59 1019.05 1019.47 1019.83 1020.12 1020.35 1020.53 1020.69 1020.86 1021.06
1018.90 1019.40 1019.74 1019.94 1020.03 1020.05 1020.05 1020.03 1020.03 1020.01 1019.96 1019.87 1019.71 1019.48 1019.19 1018.88 1018.56 1018.29 1018.07 1017.92 1017.83 1017.77 1017.72 1017.65 1017.54 1017.40 1017.25 1017.10 1017.00 1016.99 1017.09 1017.30 1017.62 1018.01 1018.45 1018.88 1019.26 1019.58 1019.82 1019.99 1020.10 1020.19 1020.28 1020.41
1018.87 1019.23 1019.45 1019.57 1019.63 1019.68 1019.75 1019.85 1019.97 1020.08 1020.13 1020.10 1019.97 1019.73 1019.41 1019.05 1018.70 1018.40 1018.19 1018.07 1018.03 1018.04 1018.06 1018.04 1017.97 1017.84 1017.65 1017.46 1017.30 1017.21 1017.23 1017.38 1017.64 1017.99 1018.37 1018.76 1019.10 1019.37 1019.55 1019.65 1019.69 1019.71 1019.73 1019.79
1018.66 1018.87 1018.97 1019.03 1019.10 1019.21 1019.38 1019.62 1019.88 1020.12 1020.27 1020.30 1020.17 1019.91 1019.54 1019.11 1018.71 1018.38 1018.16 1018.06 1018.07 1018.15 1018.24 1018.29 1018.27 1018.17 1017.99 1017.79 1017.59 1017.46 1017.43 1017.53 1017.73 1018.03 1018.36 1018.69 1018.98 1019.18 1019.30 1019.33 1019.30 1019.25 1019.20 1019.20
1018.36 1018.42 1018.44 1018.47 1018.56 1018.75 1019.05 1019.44 1019.84 1020.20 1020.43 1020.50 1020.37 1020.06 1019.62 1019.11 1018.64 1018.26 1018.02 1017.94 1017.99 1018.13 1018.29 1018.42 1018.47 1018.42 1018.28 1018.08 1017.88 1017.73 1017.67 1017.72 1017.88 1018.12 1018.39 1018.66 1018.88 1019.01 1019.06 1019.02 1018.93 1018.81 1018.71 1018.63
1018.05 1018.00 1017.96 1017.99 1018.13 1018.43 1018.86 1019.38 1019.91 1020.37 1020.66 1020.74 1020.58 1020.20 1019.67 1019.08 1018.53 1018.10 1017.83 1017.75 1017.83 1018.03 1018.26 1018.47 1018.59 1018.60 1018.51 1018.35 1018.17 1018.02 1017.94 1017.96 1018.07 1018.24 1018.45 1018.64 1018.78 1018.84 1018.82 1018.72 1018.57 1018.40 1018.24 1018.11
1017.77 1017.67 1017.61 1017.66 1017.89 1018.29 1018.84 1019.48 1020.11 1020.63 1020.95 1021.00 1020.79 1020.34 1019.72 1019.05 1018.42 1017.93 1017.64 1017.56 1017.67 1017.91 1018.20 1018.48 1018.67 1018.75 1018.72 1018.60 1018.44 1018.30 1018.21 1018.20 1018.26 1018.37 1018.51 1018.63 1018.69 1018.68 1018.59 1018.44 1018.24 1018.03 1017.83 1017.66
1017.55 1017.43 1017.39 1017.51 1017.82 1018.32 1018.97 1019.70 1020.38 1020.93 1021.23 1021.25 1020.97 1020.44 1019.75 1018.99 1018.31 1017.78 1017.47 1017.40 1017.53 1017.81 1018.15 1018.48 1018.73 1018.87 1018.89 1018.82 1018.69 1018.56 1018.46 1018.42 1018.44 1018.49 1018.55 1018.60 1018.59 1018.51 1018.37 1018.17 1017.94 1017.71 1017.48 1017.27
1017.33 1017.25 1017.27 1017.47 1017.86 1018.45 1019.17 1019.94 1020.64 1021.17 1021.44 1021.40 1021.06 1020.46 1019.70 1018.90 1018.19 1017.64 1017.34 1017.27 1017.43 1017.74 1018.12 1018.50 1018.79 1018.97 1019.04 1019.00 1018.90 1018.78 1018.67 1018.61 1018.58 1018.58 1018.58 1018.55 1018.48 1018.35 1018.16 1017.93 1017.68 1017.42 1017.18 1016.95
1017.10 1017.08 1017.19 1017.47 1017.94 1018.58 1019.34 1020.11 1020.79 1021.27 1021.48 1021.38 1020.98 1020.34 1019.55 1018.75 1018.03 1017.51 1017.22 1017.19 1017.37 1017.71 1018.11 1018.51 1018.83 1019.04 1019.14 1019.12 1019.04 1018.93 1018.83 1018.74 1018.68 1018.64 1018.59 1018.50 1018.37 1018.19 1017.96 1017.70 1017.43 1017.16 1016.90 1016.65
1016.81 1016.89 1017.08 1017.44 1017.96 1018.62 1019.37 1020.11 1020.72 1021.14 1021.28 1021.12 1020.69 1020.03 1019.27 1018.49 1017.83 1017.35 1017.12 1017.12 1017.34 1017.69 1018.11 1018.52 1018.85 1019.08 1019.19 1019.20 1019.14 1019.04 1018.93 1018.84 1018.76 1018.67 1018.58 1018.45 1018.27 1018.04 1017.77 1017.48 1017.18 1016.88 1016.60 1016.32
1016.49 1016.66 1016.93 1017.34 1017.88 1018.53 1019.23 1019.89 1020.42 1020.75 1020.83 1020.63 1020.19 1019.56 1018.85 1018.15 1017.57 1017.18 1017.01 1017.07 1017.32 1017.69 1018.11 1018.52 1018.85 1019.08 1019.20 1019.23 1019.18 1019.10 1019.00 1018.91 1018.81 1018.70 1018.56 1018.39 1018.16 1017.89 1017.57 1017.23 1016.89 1016.55 1016.23 1015.91
1016.21 1016.45 1016.77 1017.19 1017.71 1018.30 1018.91 1019.47 1019.90 1020.14 1020.15 1019.93 1019.51 1018.95 1018.33 1017.75 1017.29 1017.00 1016.92 1017.03 1017.31 1017.70 1018.12 1018.52 1018.84 1019.07 1019.20 1019.24 1019.21 1019.15 1019.06 1018.97 1018.86 1018.72 1018.55 1018.33 1018.05 1017.72 1017.34 1016.94 1016.54 1016.14 1015.76 1015.38
1016.02 1016.31 1016.64 1017.04 1017.50 1017.99 1018.48 1018.91 1019.22 1019.37 1019.33 1019.11 1018.74 1018.27 1017.78 1017.33 1017.01 1016.84 1016.86 1017.03 1017.35 1017.74 1018.15 1018.53 1018.84 1019.07 1019.20 1019.25 1019.24 1019.20 1019.12 1019.02 1018.89 1018.73 1018.52 1018.24 1017.90 1017.50 1017.06 1016.59 1016.11 1015.63 1015.17 1014.72
1016.00 1016.30 1016.61 1016.94 1017.30 1017.66 1018.00 1018.28 1018.47 1018.53 1018.46 1018.26 1017.95 1017.60 1017.25 1016.96 1016.78 1016.74 1016.85 1017.09 1017.42 1017.82 1018.21 1018.58 1018.87 1019.08 1019.22 1019.28 1019.28 1019.24 1019.17 1019.06 1018.91 1018.71 1018.44 1018.11 1017.70 1017.23 1016.71 1016.15 1015.59 1015.03 1014.49 1013.96
1016.17 1016.45 1016.70 1016.93 1017.15 1017.36 1017.53 1017.66 1017.72 1017.71 1017.61 1017.44 1017.22 1016.99 1016.79 1016.66 1016.63 1016.72 1016.91 1017.20 1017.56 1017.95 1018.33 1018.66 1018.93 1019.13 1019.26 1019.32 1019.32 1019.28 1019.19 1019.06 1018.87 1018.62 1018.29 1017.89 1017.41 1016.87 1016.28 1015.65 1015.01 1014.37 1013.75 1013.15
1016.49 1016.72 1016.88 1016.99 1017.07 1017.10 1017.11 1017.09 1017.04 1016.96 1016.84 1016.72 1016.60 1016.50 1016.45 1016.47 1016.58 1016.78 1017.05 1017.38 1017.75 1018.12 1018.47 1018.77 1019.01 1019.19 1019.29 1019.34 1019.32 1019.26 1019.15 1018.97 1018.74 1018.43 1018.04 1017.57 1017.03 1016.42 1015.77 1015.08 1014.39 1013.70 1013.01 1012.34
1016.87 1017.03 1017.10 1017.09 1017.00 1016.88 1016.74 1016.58 1016.44 1016.31 1016.20 1016.13 1016.11 1016.14 1016.24 1016.40 1016.63 1016.92 1017.25 1017.61 1017.98 1018.32 1018.64 1018.89 1019.09 1019.22 1019.30 1019.31 1019.26 1019.16 1019.00 1018.77 1018.47 1018.10 1017.65 1017.12 1016.53 1015.88 1015.19 1014.48 1013.76 1013.03 1012.32 1011.60
1017.17 1017.28 1017.25 1017.12 1016.91 1016.65 1016.38 1016.13 1015.91 1015.76 1015.68 1015.68 1015.76 1015.92 1016.14 1016.43 1016.76 1017.13 1017.50 1017.87 1018.22 1018.53 1018.79 1018.99 1019.13 1019.21 1019.24 1019.20 1019.11 1018.95 1018.73 1018.43 1018.07 1017.63 1017.12 1016.55 1015.93 1015.26 1014.57 1013.86 1013.14 1012.42 1011.69 1010.96
1017.30 1017.35 1017.25 1017.03 1016.72 1016.37 1016.02 1015.70 1015.46 1015.32 1015.29 1015.37 1015.55 1015.82 1016.16 1016.55 1016.97 1017.38 1017.78 1018.14 1018.45 1018.71 1018.90 1019.04 1019.12 1019.14 1019.10 1019.01 1018.85 1018.63 1018.34 1017.98 1017.55 1017.05 1016.50 1015.90 1015.26 1014.59 1013.92 1013.24 1012.55 1011.85 1011.14 1010.40
1017.17 1017.18 1017.04 1016.77 1016.41 1016.01 1015.63 1015.31 1015.09 1014.99 1015.02 1015.19 1015.47 1015.85 1016.29 1016.76 1017.22 1017.66 1018.06 1018.39 1018.65 1018.85 1018.97 1019.04 1019.04 1018.99 1018.89 1018.73 1018.51 1018.23 1017.87 1017.45 1016.96 1016.41 1015.82 1015.20 1014.56 1013.91 1013.27 1012.63 1011.98 1011.32 1010.63 1009.90
1016.81 1016.80 1016.64 1016.36 1015.99 1015.60 1015.24 1014.96 1014.79 1014.77 1014.89 1015.15 1015.53 1015.99 1016.50 1017.03 1017.52 1017.96 1018.33 1018.62 1018.82 1018.94 1018.99 1018.98 1018.91 1018.79 1018.62 1018.40 1018.12 1017.78 1017.36 1016.89 1016.35 1015.77 1015.15 1014.52 1013.88 1013.25 1012.63 1012.02 1011.41 1010.78 1010.11 1009.40
1016.29 1016.28 1016.12 1015.86 1015.53 1015.20 1014.90 1014.69 1014.61 1014.68 1014.90 1015.25 1015.71 1016.25 1016.81 1017.35 1017.84 1018.26 1018.58 1018.81 1018.93 1018.98 1018.95 1018.86 1018.72 1018.54 1018.32 1018.04 1017.71 1017.33 1016.87 1016.36 1015.79 1015.17 1014.54 1013.89 1013.25 1012.63 1012.03 1011.43 1010.84 1010.22 1009.56 1008.84
1015.73 1015.71 1015.58 1015.37 1015.11 1014.85 1014.65 1014.55 1014.57 1014.74 1015.05 1015.49 1016.01 1016.58 1017.16 1017.70 1018.17 1018.53 1018.79 1018.94 1018.99 1018.95 1018.84 1018.68 1018.49 1018.25 1017.98 1017.67 1017.32 1016.90 1016.42 1015.88 1015.29 1014.66 1014.01 1013.35 1012.69 1012.06 1011.45 1010.84 1010.24 1009.60 1008.92 1008.18
1015.25 1015.23 1015.13 1014.97 1014.79 1014.63 1014.54 1014.54 1014.67 1014.94 1015.33 1015.82 1016.38 1016.97 1017.53 1018.04 1018.45 1018.75 1018.93 1018.99 1018.96 1018.84 1018.66 1018.44 1018.19 1017.92 1017.62 1017.29 1016.92 1016.49 1016.01 1015.46 1014.87 1014.23 1013.56 1012.88 1012.20 1011.54 1010.90 1010.25 1009.61 1008.93 1008.21 1007.43
1014.95 1014.93 1014.85 1014.75 1014.64 1014.58 1014.58 1014.69 1014.91 1015.25 1015.69 1016.21 1016.77 1017.34 1017.86 1018.30 1018.64 1018.86 1018.95 1018.93 1018.81 1018.62 1018.38 1018.11 1017.82 1017.52 1017.20 1016.87 1016.49 1016.08 1015.60 1015.07 1014.47 1013.83 1013.16 1012.46 1011.76 1011.05 1010.36 1009.66 1008.96 1008.22 1007.45 1006.62
Thickness
5668 5659 5653 5656 5658 5662 5661 5657 5651 5654 5665 5664 5662 5663 5671 5674 5676 5675 5673 5672 5671 5672 5673 5674 5675 5675 5675 5673 5670 5667 5663 5659 5653 5646 5640 5634 5631 5627 5623 5620 5616 5612 5608 5604
5654 5650 5660 5663 5660 5656 5653 5649 5647 5652 5661 5659 5656 5659 5668 5672 5672 5671 5669 5667 5665 5666 5667 5668 5668 5667 5665 5663 5661 5659 5656 5652 5648 5643 5637 5631 5627 5623 5619 5615 5612 5609 5605 5601
5649 5657 5664 5658 5654 5650 5648 5645 5648 5650 5652 5653 5652 5659 5665 5668 5668 5667 5664 5662 5660 5659 5657 5658 5658 5656 5655 5653 5651 5651 5648 5645 5641 5636 5630 5623 5619 5615 5612 5610 5608 5606 5601 5597
5645 5653 5656 5654 5652 5649 5643 5652 5649 5648 5642 5636 5641 5637 5654 5658 5660 5662 5659 5655 5653 5652 5651 5650 5649 5647 5644 5642 5641 5641 5640 5637 5633 5629 5623 5617 5612 5609 5609 5606 5603 5601 5597 5594
5646 5654 5654 5651 5653 5650 5649 5652 5647 5644 5637 5630 5630 5629 5641 5650 5651 5653 5654 5651 5649 5646 5644 5642 5640 5638 5635 5632 5632 5631 5630 5628 5624 5621 5617 5611 5608 5606 5604 5600 5597 5595 5592 5589
5647 5655 5657 5656 5656 5652 5649 5640 5632 5623 5620 5624 5631 5623 5634 5640 5648 5650 5648 5645 5643 5640 5637 5635 5632 5630 5627 5625 5623 5622 5621 5618 5615 5612 5609 5604 5601 5599 5596 5593 5591 5589 5586 5583
5643 5648 5654 5654 5647 5645 5643 5631 5620 5625 5618 5621 5627 5619 5630 5647 5647 5645 5643 5640 5637 5633 5629 5626 5624 5620 5618 5616 5614 5612 5611 5609 5607 5604 5601 5598 5595 5592 5589 5587 5584 5582 5579 5577
5633 5635 5646 5648 5646 5638 5635 5630 5617 5615 5610 5611 5618 5616 5634 5644 5640 5639 5638 5634 5630 5626 5621 5619 5616 5612 5608 5607 5605 5603 5602 5600 5598 5596 5594 5591 5588 5585 5582 5580 5577 5574 5572 5571
5626 5630 5642 5644 5645 5639 5628 5622 5621 5606 5603 5601 5608 5616 5630 5641 5635 5632 5629 5626 5623 5619 5616 5612 5608 5605 5601 5599 5596 5594 5593 5591 5590 5588 5586 5583 5580 5577 5574 5572 5568 5565 5563 5561
5632 5630 5635 5636 5638 5631 5629 5617 5605 5601 5599 5597 5603 5608 5617 5631 5630 5626 5622 5619 5616 5612 5608 5605 5600 5596 5593 5590 5588 5586 5584 5582 5580 5578 5576 5574 5570 5567 5564 5561 5558 5555 5552 5549
5632 5626 5625 5626 5623 5623 5617 5615 5607 5594 5592 5588 5588 5608 5625 5624 5623 5619 5617 5614 5610 5605 5600 5594 5590 5587 5584 5582 5579 5577 5575 5573 5570 5568 5565 5562 5559 5556 5552 5549 5545 5542 5539 5535
5625 5615 5613 5618 5622 5621 5617 5612 5601 5597 5591 5580 5580 5602 5627 5620 5616 5614 5610 5606 5602 5597 5591 5586 5582 5578 5576 5573 5571 5568 5565 5562 5559 5556 5553 5550 5546 5543 5539 5536 5532 5528 5524 5520
5618 5610 5605 5610 5609 5609 5610 5606 5601 5594 5584 5567 5572 5600 5615 5611 5609 5605 5601 5596 5590 5587 5583 5577 5573 5569 5566 5564 5561 5558 5555 5551 5548 5545 5540 5537 5533 5530 5526 5522 5518 5514 5509 5504
5619 5608 5606 5605 5607 5605 5604 5603 5594 5588 5579 5571 5579 5598 5606 5602 5599 5595 5591 5586 5580 5576 5572 5568 5563 5560 5556 5553 5550 5547 5543 5540 5536 5532 5527 5523 5519 5515 5511 5507 5502 5497 5492 5487
5613 5603 5604 5605 5607 5602 5602 5602 5594 5588 5588 5586 5593 5592 5600 5596 5592 5588 5582 5577 5572 5568 5564 5560 5555 5550 5546 5543 5539 5536 5532 5527 5523 5518 5513 5509 5505 5500 5495 5490 5485 5480 5475 5469
5600 5597 5595 5596 5595 5590 5588 5594 5591 5589 5587 5583 5586 5588 5592 5587 5580 5575 5571 5567 5563 5559 5555 5551 5546 5541 5536 5532 5528 5524 5519 5515 5509 5504 5499 5495 5490 5485 5479 5474 5469 5463 5458 5452
5587 5584 5580 5577 5580 5582 5581 5596 5593 5588 5585 5582 5580 5583 5581 5577 5572 5567 5562 5557 5553 5549 5544 5540 5534 5529 5524 5520 5515 5510 5506 5501 5495 5490 5485 5480 5474 5468 5463 5457 5451 5445 5440 5434
5580 5576 5566 5562 5569 5566 5593 5597 5593 5585 5584 5578 5578 5575 5571 5568 5564 5558 5552 5548 5543 5538 5533 5527 5522 5518 5513 5508 5503 5497 5492 5486 5480 5474 5469 5463 5457 5451 5446 5440 5433 5428 5422 5416
5575 5569 5552 5545 5550 5561 5580 5585 5579 5575 5574 5573 5566 5563 5560 5555 5549 5542 5542 5537 5531 5526 5520 5514 5510 5505 5500 5494 5489 5483 5478 5471 5465 5460 5454 5447 5440 5434 5429 5423 5417 5410 5404 5401
5557 5560 5548 5535 5543 5552 5576 5582 5578 5570 5562 5564 5558 5553 5549 5542 5532 5528 5531 5524 5519 5514 5507 5503 5498 5492 5487 5481 5475 5468 5462 5456 5451 5446 5440 5432 5423 5416 5411 5406 5400 5394 5387 5384
5547 5543 5538 5531 5534 5549 5569 5570 5566 5555 5561 5552 5547 5543 5537 5527 5522 5519 5516 5511 5506 5501 5496 5491 5485 5478 5472 5467 5460 5453 5447 5441 5437 5431 5424 5416 5408 5400 5394 5389 5384 5377 5373 5371
5548 5537 5528 5525 5528 5546 5561 5553 5552 5551 5543 5540 5536 5532 5526 5520 5515 5510 5504 5498 5493 5487 5483 5478 5471 5465 5459 5452 5444 5439 5433 5430 5424 5417 5410 5402 5394 5385 5380 5374 5370 5365 5360 5359
5542 5548 5540 5540 5547 5544 5545 5544 5541 5535 5532 5529 5523 5520 5515 5509 5502 5497 5491 5485 5479 5474 5468 5462 5456 5450 5444 5437 5429 5423 5421 5415 5409 5402 5395 5388 5382 5374 5366 5360 5358 5356 5352 5350
5533 5530 5525 5523 5529 5531 5528 5528 5528 5526 5523 5518 5513 5508 5502 5496 5489 5482 5474 5469 5464 5459 5453 5448 5441 5436 5431 5425 5416 5409 5405 5400 5393 5387 5381 5375 5369 5365 5359 5352 5348 5346 5344 5343
5529 5516 5514 5514 5518 5516 5517 5517 5515 5512 5508 5503 5498 5493 5488 5481 5474 5468 5460 5455 5450 5445 5439 5433 5427 5422 5418 5412 5405 5398 5390 5384 5378 5373 5368 5363 5357 5353 5351 5348 5343 5340 5340 5335
5510 5508 5508 5512 5511 5505 5505 5505 5501 5498 5494 5488 5483 5478 5473 5466 5459 5454 5446 5441 5436 5431 5426 5420 5415 5409 5405 5399 5393 5386 5378 5369 5363 5360 5356 5351 5347 5345 5342 5341 5343 5341 5337 5337